"Pseudo-MPEC" for ZKA8FB3

Created 2018 May 31 15:18:13 UT using Find_Orb

Click here for an explanation of pseudo-MPECs

 
 Astrometry: 
     ZKA8FB3  C2018 05 17.40610 20 19 11.99 +05 17 13.3          19.9 GUNEOCPG96
     ZKA8FB3  C2018 05 17.41087 20 19 11.84 +05 17 13.2          19.9 GUNEOCPG96
     ZKA8FB3  C2018 05 17.41566 20 19 11.69 +05 17 13.2          19.8 GUNEOCPG96
     ZKA8FB3  C2018 05 17.42044 20 19 11.54 +05 17 13.0          20.2 GUNEOCPG96
     ZKA8FB3  C2018 05 17;YAstrometryB,^a85mrk!+:4JD7#pA:^TH?q8gwZs5AfK^YwOZ\H01
     ZKA8FB3  C2018 05 17in,h_0,V+Gn`o31gKx+LT'8%eqn+^8SE9/fI:3=\PfIVdh;6vB(!H01
     ZKA8FB3  C2018 05 17ayW0^oH8n(Q#nT\qrr!^v1IM9:oB;1uLAZuirjK#msW1/(*(]h$oH01
     ZKA8FB3  C2018 05 17kvB_6k'+VWw6R@.Bkej?v!N$_Vb(41M0S2xm+UJR`osIk45]1k2iH01
     ZKA8FB3 (C2018 05 18PB+21`uIrvHf[#6x/PG\yl!h(8Ss$B#GN62DP-n]ph?MX=\c?b0tG40
     ZKA8FB3 (C2018 05 18P8f)ekCl.Y$RceeIp.hC@_Z)#Slg'vZmZE8`h*H!bd(!*QK8sI22G40
     ZKA8FB3  C2018 05 18)i\bV=^60r\I2$-ZZJ[DR6(];tVd-BGI1]1gI$1v:4.ruiRyJQQ:H01
     ZKA8FB3  C2018 05 18YhUTDta@AdQ%O?YRwjN7X]/.L-Pm_DL'SZLMuFI_x(h=aA:,I+,nH01
     ZKA8FB3  C2018 05 18L20Z#s`*:dA`MjyKrhB4c6@2u^si1+TEH1b;ryD@hsQ;aMO$cIk^H01
     ZKA8FB3  C2018 05 18.37994 20 18 42.75 +05 16 47.9          19.7 GUNEOCPI52
     ZKA8FB3  C2018 05 18-d'rI[=Km54bbjBa4bAW\Lrwy!VJGW1[*Zq!`ktSdInSe50!a\y:H01
     ZKA8FB3  C2018 05 18.39117 20 18 42.48 +05 16 47.5          19.8 GUNEOCPI52
     ZKA8FB3  C2018 05 18.39903 20 18 42.23 +05 16 47.0          19.8 GUNEOCPI52
     ZKA8FB3 |C2018 05 18]UV-V0gkH!JaZo[;HdpS)+=+Fy^`\miIL-jq0k44-n)B/QBM!O1,H06
     ZKA8FB3 |C2018 05 18l,kTlM!bp$4$n+h9?Fh+CQ6e%7;jw-`)S:uZo]QsK/A0wZ*y[r^XH06
     ZKA8FB3 |C2018 05 18#tC\e8LbF2kS@3uWdn\Mil$$P#9H;q5:bS5S!a`([s#88LNe;ujsH06
     ZKA8FB3  C2018 05 19KG2Nc)TRxp-++I^a1DilqF_/r3Ohbsa4@tb]Wp6UfC`LFD3WB$:HL01
     ZKA8FB3  C2018 05 19c#uPR=9K$'FRi)0_se%pLQ=JdNG@R;CoK[mP9tvl=ZV-g[Xm3urQL01
     ZKA8FB3  C2018 05 19#?rVZ;%R3%WHr.aF^Scr/?QU^Dh3?j5ko`s_YA2A]X6BR;XQppO8L01
     ZKA8FB3  C2018 05 19.39205 20 18 11.55 +05 16 17.5          19.7 GUNEOCPI52
     ZKA8FB3  C2018 05 19.39892 20 18 11.31 +05 16 16.5          19.7 GUNEOCPI52
     ZKA8FB3  C2018 05 19.40579 20 18 11.10 +05 16 16.3          19.5 GUNEOCPI52
     ZKA8FB3  C2018 05 19.41266 20 18 10.88 +05 16 16.2          19.6 GUNEOCPI52
     ZKA8FB3 9C2018 05 19]F2N[#N+d.-7n@3bp^B`Zt`P-7FWA_;gKCHNKSlZ:^(5q.wgFsM[F65
     ZKA8FB3 9C2018 05 19m41%12FJMguJ6$uCJ/8.7M%y$lwt[jbFEAWWB\^/WbE57C`G[n8.F65
     ZKA8FB3 9C2018 05 19NlftlcnM-0M,R*=t@redacted;U)x=)gUMVavHIJ:5x,RG3_W`lcF65
     ZKA8FB3 9C2018 05 19E/]eeA=\$+k^2!EbJHfd7eKi28Niyt-x^D=#e5_Ct+',,IV(5u?.F65
     ZKA8FB3 9C2018 05 19287VkeciI-aMv@JJK,0WfYhoo=ho=Q\UB8G-Uj1+7C[Wn+(T:@u(F65
     ZKA8FB3 9C2018 05 19ijEX:/vq+hr8C=I9H;]^r+iU_+oY[QIKP[elD;=O)6A-E@/`Wm2]F65
     ZKA8FB3  C2018 05 20g!B64#A7)qrHcpd'EGqAN$fHgLY[^urP:p8V!c(IMyg.x5Y?=]_?L01
     ZKA8FB3  C2018 05 20J1x_JMWP#ruj8QE4n)3\keqJ_haD-e0+KZX\d5.0R1wgPlp=(;\SL01
     ZKA8FB3  C2018 05 20eAA@Nk*YpdkS(Z;FDnW:kxj7na?cDr(?9._gTi$-E1iYMjXA!rf=L01
     ZKA8FB3  C2018 05 20$H$C2H:h/#'wWKQ[2Qm0@lh;Ga'G$+p\)(+EvM.yT_VY7llh_nRYL01
     ZKA8FB3  C2018 05 20:Ata\!c:aYvj;[ik.wE=]!vNGB`jn?^imKoc?0vkQC\`@'WW]-+^L01
     ZKA8FB3  C2018 05 20*!EtJdY9XY?'B8kr.Ec`hyb[W@%H[!C+fVxxi=%e0J]oF$]y$yZ5L01
     ZKA8FB3 KC2018 05 20?R.yUVZVS?vc=tR5S=E#cLh/F/46(gD[vTo,b4)KRW$AeAfBvOoPC95
     ZKA8FB3 KC2018 05 20qXPrA?.$,,_(`/4HCqNOORpnM66#@_T7^c9#K=cWWkrftcQHmTcNC95
     ZKA8FB3 KC2018 05 20\e_@$m1B,O6cSM2d^*xXnP'a05$_qX$1R(X%dm;NGH!33sq=rPeHC95
     ZKA8FB3  C2018 05 20.42736 20 17 38.55 +05 15 40.6          19.4 GUNEOCPI52
     ZKA8FB3  C2018 05 20.43430 20 17 38.31 +05 15 40.2          19.6 GUNEOCPI52
     ZKA8FB3  C2018 05 20.44123 20 17 38.05 +05 15 39.3          19.5 GUNEOCPI52
     ZKA8FB3 HC2018 05 2012F_qr=O)pXah]5xT\F/J3(A+Kp\wi]\:USj8#HSk_Y7g=7PgKY.691
     ZKA8FB3 HC2018 05 20V3ZjpWYSmsbGcTJebp$uvocm-mZ2LCB`#HPMc[s\wtRE?:oD5kmR691
     ZKA8FB3  C2018 05 21.42284 20 17 05.85 +05 14 59.5                UNEOCPI52
     ZKA8FB3  C2018 05 21.43057 20 17 05.54 +05 14 59.6          19.5 GUNEOCPI52
     ZKA8FB3 HC2018 05 21_Fs2L.fsWG7Y(0Y_p1*5%S3oD'G][G1HtMV`G3WHJ6*5,ctOXlTe691
     ZKA8FB3  C2018 05 21.43735 20 17 05.34 +05 14 59.3          19.5 GUNEOCPI52
     ZKA8FB3 HC2018 05 21YI/`KGBLXj_a`4r.8bl'IVUK+gq9RQc7h=3:OW;4XVuF(]^jP@9,691
     ZKA8FB3 HC2018 05 21u?k=6*ogGeYi(F*W$yl6UA\7Xt'.:unjn_-*DVLEB_5J+s\cr(y'691
     ZKA8FB3  C2018 05 22.39207 20 16 33.07 +05 14 16.3          19.9 GUNEOCPI52
     ZKA8FB3  C2018 05 22.39911 20 16 32.87 +05 14 16.1          19.8 GUNEOCPI52
     ZKA8FB3  C2018 05 22.41146 20 16 32.42 +05 14 15.0          19.8 GUNEOCPI52
     ZKA8FB3 KC2018 05 23I['VyjJt^:hx!MvXSuT80$C):aUB`\EvseeT',TqV(/KKaLx]^+YJ77
     ZKA8FB3 KC2018 05 238CCq@'e'\.BsSMZJ[+d;+5Xg:prMc;p45Qy=ha_a;#hO'J[-hv9#J77
     ZKA8FB3 KC2018 05 23RKjlub?8WjLlAc/gJ(YmX`qmH_i;bAf,h;naT%QZqM`5\(7a0qTBJ77
     ZKA8FB3 KC2018 05 23WK5%0XtLT:XBV)d+5DVb_kxg)9QTmNer=E\v?.*Z@L6F/+xxb`]-J77
     ZKA8FB3 KC2018 05 239$6RVD*0LGU/wt='T8SD^=xD;w,V4mI9^Uo(/S8\mkxBbYvgu9*sW96
     ZKA8FB3 KC2018 05 23]yJC/_62RNhGWwTo3.=$,_A@5A-047*KjTHTm_fE3TFD,:?/1xopW96
     ZKA8FB3 KC2018 05 23?5+:BO3$TIXHbDmOS:N9nh2#S0sIOb.D+JsJMvYP.'l-Nv`BJS78W96
     ZKA8FB3  C2018 05 23.38372 20 15 58.63 +05 13 26.3          19.9 GUNEOCPI52
     ZKA8FB3  C2018 05 23.38977 20 15 58.44 +05 13 26.1          20.1 GUNEOCPI52
     ZKA8FB3  C2018 05 23.39649 20 15 58.18 +05 13 25.8          19.6 GUNEOCPI52
     ZKA8FB3  C2018 05 23.40406 20 15 57.92 +05 13 25.7          19.4 GUNEOCPI52
     ZKA8FB3  C2018 05 24.37716 20 15 23.22 +05 12 31.9          20.2 GUNEOCPI52
     ZKA8FB3  C2018 05 24.38279 20 15 23.00 +05 12 31.3          19.5 GUNEOCPI52
     ZKA8FB3  C2018 05 24.39008 20 15 22.73 +05 12 30.7          19.9 GUNEOCPI52
     ZKA8FB3  C2018 05 24.39673 20 15 22.50 +05 12 30.4          19.8 GUNEOCPI52
     ZKA8FB3 KC2018 05 24e:kvgn%PI5'vS+$*dT8E!Etw_pG8-9$^TCRYs.]b5Ypu7_F8_G83K41
     ZKA8FB3 KC2018 05 24DQ)kjk^HmBjN[\rL,vGCv`iiy6[242Ya=$._x3J4CPtsQp7a9kRtK41
     ZKA8FB3 KC2018 05 24#f`sF=ZcAh#HAj]:,ZD'Tuy$g`=Xlk[YQ/Yniv62y8SD068K]w%XK41
     ZKA8FB3  C2018 05 25.37689 20 14 46.56 +05 11 29.8                UNEOCPI52
     ZKA8FB3  C2018 05 25.38419 20 14 46.22 +05 11 29.9          19.8 GUNEOCPI52
     ZKA8FB3  C2018 05 25.39880 20 14 45.62 +05 11 29.8                UNEOCPI52
     ZKA8FB3  C2018 05 26v)y7FW)kmBu7EL'W%sdI)UbEEC_WshW0hhnY5d!7`l7fMHkF3;OBF51
     ZKA8FB3  C2018 05 26#uHr-YEOjV=Y$Pnh+`(RQn%y:LfU!.2P0hHqGnFl$=%\GsJS3-+UF51
     ZKA8FB3  C2018 05 260o\^J8G6hW$k)9OrqGwSnJW!8d,V@qN5-g:E4*4E/%NirXaiY8BMF51
     ZKA8FB3  C2018 05 26bS)518`_MnLA9:L'`5`h$X?GYWCa?wjtoY+-@D4hqV'e\/KqI:O(F51
     ZKA8FB3 ^C2018 05 28nn)NKM5D$Ys8#2:MJ(8`kdWnX`vLTTY-C$ev^;'2(O]dACU+U#=o695
     ZKA8FB3 ^C2018 05 28DJZx)ABa,x^D98bAnt#w1g/vJyA3Se]3A.:(:8@^,X'Lu*I`qhoG695
     ZKA8FB3 ^C2018 05 28l3F3!S^gKYve6W\Oc;ODg$N7?yY4FKG8#GE;4pOd5kUmM*0h3U0l695
     ZKA8FB3 KC2018 05 30]!1]Zy]+!*wX+CNtm#^)n9PAw:d1ot#-u4D/3'nifk!K4OE\R*eF691
     ZKA8FB3 KC2018 05 30w;BuU,,%Zcf/Q0k2a1Wc]F8((kfGkd3_KsEPSb941rs)X\@NEOCP691

Station data:
(691) Steward Observatory, Kitt Peak - Spacewatch  (N31.962174 W111.600327)
   US/Arizona.  Observer J. V. Scotti. 0.9-m f/3 reflector + CCD.
(695) Kitt Peak  (N31.958398 W111.594670)  US/Arizona.
(C95) SATINO Remote Observatory, Haute Provence  (N43.932042 E5.712390)
   France.
(F51) Pan-STARRS 1, Haleakala  (N20.707235 W156.255910)  US/Hawaii.
   Observers N. Primak, A. Schultz, S. Watters, J. Thiel, T. Goggia. Measurer
   PS1 Science Consortium. 1.8-m Ritchey-Chrétien + CCD.
(F65) Haleakala-Faulkes Telescope North  (N20.707094 W156.257600)  US/Hawaii.
   2.0-m Faulkes Telescope North.
(G40) Slooh.com Canary Islands Observatory  (N28.299720 W16.508260)  Canary
   Islands (Spain).  Observers G. Gašparović, Y. Chen. 0.43-m f/6.8 Corrected
   Dall-Kirkham + CCD.
(G96) Mt. Lemmon Survey  (N32.442754 W110.788720)  US/Arizona.  Observers B.
   M. Africano, E. J. Christensen, D. C. Fuls, A. R. Gibbs, A. D. Grauer, J.
   A. Johnson, R. A. Kowalski, S. M. Larson, G. J. Leonard, R. L. Seaman, F.
   C. Shelly. 1.5-m reflector + 10K CCD.
(H01) Magdalena Ridge Observatory, Socorro  (N33.984833 W107.189333)  US/New
   Mexico.  Observers W. H. Ryan, E. V. Ryan. Measurer W. H. Ryan. 2.4-m
   f/8.9 reflector + CCD.
(H06) RAS Observatory, Mayhill  (N32.903325 W105.528700)  US/New
   Mexico.  Observers E. Guido, G. Sostero, V. Gonano, L. Donato.
(I52) Steward Observatory, Mt. Lemmon Station  (N32.442547 W110.788920)
   US/Arizona.  Observers B. M. Africano, E. J. Christensen, D. C. Fuls, A.
   R. Gibbs, A. D. Grauer, J. A. Johnson, R. A. Kowalski, S. M. Larson, G. J.
   Leonard, R. L. Seaman, F. C. Shelly. 1.0-m reflector + CCD.
(J77) Golden Hill Observatory, Stourton Caundle  (N50.930949 W2.405300)  UK.
   Observer R. Miles. 0.28-m f/10 Schmidt-Cassegrain + CCD.
(K41) Vegaquattro Astronomical Obs., Novi Ligure  (N44.771183 E8.793000)
   Italy.
(L01) Višnjan Observatory, Tičan  (N45.290900 E13.749300)  Croatia.  Observer
   K. Korlević. 1.0-m f/2.9 reflector + CCD.
(W96) CAO, San Pedro de Atacama (since 2013)  (S22.953491 W68.179940)  Chile.

Orbital elements:  ZKA8FB3
   Perihelion 2019 Sep 13.335546 +/- 7.56 TT =  8:03:11 (JD 2458739.835546)
Epoch 2018 May 30.0 TT = JDT 2458268.5   Ne: 0.3240           AutoNEOCP
M 359.78641 +/- 0.9                 (J2000 ecliptic)
n   0.00045315 +/- 0.00108          Peri.  217.94935 +/- 0.51
a 167.868731 +/- 291                Node    91.66546 +/- 0.15
e   0.9783652 +/- 0.0354            Incl.  136.57810 +/- 0.18
P2174.98                   H 12.4   G  0.15   U  8.2  
q 3.63179349 +/- 0.013    Q 332.105668 +/- 395
From 86 observations 2018 May 17-30; mean residual 0".34
Residuals in arcseconds: 
180517 G96  .20+  .04-    180519 F65  .55-  .06+    180523 J77  .56+  .21+    
180517 G96  .10+  .03-    180519 F65  .81-  .04+    180523 J77  .02-  .15-    
